Evenes, Norway

1:51 PM CET on December 13, 2017 (GMT +0100)
Evenes

Weather History for ENEV - January, 2013

Change the Weather History Date:

Tuesday, January 1, 2013

  Actual Average Record
Temperature  
Mean Temperature 17 °F -  
Max Temperature 24 °F 27 °F 46 °F (2016)
Min Temperature 10 °F 18 °F -2 °F (2003)
Degree Days  
Heating Degree Days 48    
Moisture  
Dew Point 14 °F    
Average Humidity 87    
Maximum Humidity 100    
Minimum Humidity 74    
Precipitation  
Precipitation 0.00 in - - ()
Sea Level Pressure  
Sea Level Pressure 29.16 in    
Wind  
Wind Speed 2 mph ()    
Max Wind Speed 6 mph    
Max Gust Speed -    
Visibility 6.2 miles    
Events      
Averages and records for this station are not official NWS values.
T = Trace of Precipitation, MM = Missing Value Source: Averaged Metar Reports

Daily Weather History Graph

Daily Weather History Graph

Search for Another Location

Airport or City:

Trip Planner

Search our weather history database for the weather conditions in past years. The results will help you decide how hot, cold, wet, or windy it might be!

Date:

Astronomy

Jan. 01, 2013 Rise Set
Actual Time 11:24 AM CET 12:29 PM CET
Civil Twilight 9:17 AM CET 2:36 PM CET
Nautical Twilight 7:46 AM CET 4:07 PM CET
Astronomical Twilight 6:33 AM CET 5:20 PM CET
Moon 8:05 PM CET (1/1) 10:16 AM CET (1/1)
Length of Visible Light 5h 19m
Length of Day
1h 04m
Waning Gibbous, 85% of the Moon is Illuminated
Jan 1
Waning Gibbous
Jan 5
Last Quarter
Jan 11
New
Jan 19
First Quarter
Jan 27
Full

Hourly Weather History & Observations

Time (CET) Temp. Windchill Dew Point Humidity Pressure Visibility Wind Dir Wind Speed Gust Speed Precip Events Conditions
12:20 AM 24.8 °F - 19.4 °F 80% 29.12 in 6.2 mi Variable 2.3 mph - N/A   Unknown
12:50 AM 21.2 °F - 15.8 °F 80% 29.12 in 6.2 mi Calm Calm - N/A   Unknown
1:20 AM 21.2 °F - 19.4 °F 93% 29.12 in 6.2 mi Variable 2.3 mph - N/A   Unknown
1:50 AM 19.4 °F - 17.6 °F 93% 29.12 in 6.2 mi Variable 1.2 mph - N/A   Unknown
2:20 AM 17.6 °F - 14.0 °F 86% 29.12 in 6.2 mi WSW 1.2 mph - N/A   Unknown
2:50 AM 19.4 °F - 15.8 °F 86% 29.09 in 6.2 mi Variable 2.3 mph - N/A   Unknown
3:20 AM 19.4 °F - 15.8 °F 86% 29.09 in 6.2 mi Calm Calm - N/A   Unknown
3:50 AM 17.6 °F - 14.0 °F 86% 29.12 in 6.2 mi NNE 1.2 mph - N/A   Unknown
4:20 AM 15.8 °F - 12.2 °F 86% 29.12 in 6.2 mi Variable 1.2 mph - N/A   Unknown
4:50 AM 15.8 °F - 14.0 °F 93% 29.09 in 6.2 mi Variable 2.3 mph - N/A   Unknown
5:20 AM 15.8 °F - 14.0 °F 93% 29.09 in 6.2 mi WNW 1.2 mph - N/A   Unknown
5:50 AM 19.4 °F 12.8 °F 19.4 °F 100% 29.12 in 6.2 mi SSE 4.6 mph - N/A   Unknown
6:20 AM 21.2 °F 16.4 °F 15.8 °F 80% 29.12 in 6.2 mi SSE 3.5 mph - N/A   Unknown
6:50 AM 21.2 °F - 14.0 °F 74% 29.12 in 6.2 mi Variable 2.3 mph - N/A   Unknown
7:20 AM 17.6 °F - 14.0 °F 86% 29.12 in 6.2 mi SE 1.2 mph - N/A   Unknown
7:50 AM 15.8 °F - 12.2 °F 86% 29.12 in 6.2 mi NNW 1.2 mph - N/A   Unknown
8:20 AM 15.8 °F - 14.0 °F 93% 29.12 in 6.2 mi Variable 2.3 mph - N/A   Unknown
8:50 AM 21.2 °F - 17.6 °F 86% 29.12 in 6.2 mi Variable 2.3 mph - N/A   Unknown
9:20 AM 21.2 °F - 17.6 °F 86% 29.15 in 6.2 mi Variable 2.3 mph - N/A   Unknown
9:50 AM 21.2 °F 13.6 °F 17.6 °F 86% 29.15 in - SSE 5.8 mph - N/A   Clear
10:50 AM 24.8 °F 17.9 °F 19.4 °F 80% 29.15 in - SSE 5.8 mph - N/A   Clear
11:50 AM 23.0 °F 18.4 °F 19.4 °F 86% 29.15 in - South 3.5 mph - N/A   Clear
12:50 PM 23.0 °F - 17.6 °F 80% 29.18 in - Variable 2.3 mph - N/A   Clear
1:50 PM 23.0 °F - 15.8 °F 74% 29.18 in - Variable 1.2 mph - N/A   Clear
2:20 PM 17.6 °F 12.3 °F 12.2 °F 79% 29.18 in - North 3.5 mph - N/A   Clear
2:50 PM 15.8 °F - 14.0 °F 93% 29.18 in - Variable 2.3 mph - N/A   Clear
3:50 PM 15.8 °F - 14.0 °F 93% 29.21 in - Variable 2.3 mph - N/A   Clear
4:50 PM 14.0 °F 8.2 °F 10.4 °F 86% 29.21 in - NNE 3.5 mph - N/A   Clear
5:50 PM 14.0 °F 8.2 °F 10.4 °F 86% 29.21 in - North 3.5 mph - N/A   Clear
6:50 PM 12.2 °F 6.1 °F 8.6 °F 85% 29.24 in - North 3.5 mph - N/A   Clear
7:50 PM 14.0 °F - 12.2 °F 93% 29.24 in - Variable 1.2 mph - N/A   Clear
8:50 PM 10.4 °F - 8.6 °F 92% 29.27 in - Variable 2.3 mph - N/A   Clear
9:50 PM 10.4 °F - 8.6 °F 92% 29.27 in - Variable 2.3 mph - N/A   Clear
10:50 PM 14.0 °F - 12.2 °F 93% 29.30 in - Variable 2.3 mph - N/A   Clear
11:20 PM 12.2 °F - 12.2 °F 100% 29.30 in 6.2 mi North 2.3 mph - N/A   Unknown
11:50 PM 12.2 °F - 10.4 °F 92% 29.33 in 6.2 mi Variable 2.3 mph - N/A   Unknown